Flag for Canada

Past Weather in Kelowna, British Columbia, Canada — December 2018

Now
81 °F

Passing clouds.


Feels Like: 80 °F
Forecast: 67 / 53 °F
Wind: 2 mph from North

Location: Kelowna Airport

Current Time: Jul 11, 2020 at 6:36:54 pm

Latest Report: Jul 11, 2020 at 5:00 pm


Visibility: 9 mi

Pressure: 29.84 "Hg

Humidity: 30%

Dew Point: 46 °F

Location of KelownaLocation

December 2018 Weather in Kelowna — Graph

°F

High & Low Weather Summary for December 2018

 TemperatureHumidityPressure
High48 °F (Dec 18, 12:00 pm)100% (Dec 1, 12:25 am)30.59 "Hg (Dec 1, 12:25 am)
Low14 °F (Dec 7, 2:00 am)38% (Dec 21, 2:00 pm)29.50 "Hg (Dec 20, 4:00 pm)
Average33 °F85%30.12 "Hg
* Reported Dec 1 12:25 am — Dec 31 11:00 pm, Kelowna. Weather by CustomWeather, © 2020

Note: Actual official high and low records may vary slightly from our data, if they occured in-between our weather recording intervals... More about our weather records

Kelowna Weather History for December 1, 2018

Scroll right to see more
 ConditionsComfort  
Time TempWeatherWind HumidityBarometerVisibility
12:25 am
Sat, Dec 1
37 °FMostly cloudy.6 mph100%29.84 "Hg9 mi
1:07 am37 °FLight rain. Overcast.5 mph100%29.84 "Hg9 mi
1:34 am37 °FOvercast.6 mph100%29.84 "Hg9 mi
2:00 am37 °FOvercast.5 mph100%29.85 "Hg9 mi
2:32 am37 °FLight rain. Mostly cloudy.9 mph93%29.85 "Hg9 mi
2:40 am37 °FLight rain. Mostly cloudy.8 mph93%29.85 "Hg9 mi
3:03 am37 °FMostly cloudy.7 mph100%29.85 "Hg9 mi
3:15 am37 °FLight rain. Mostly cloudy.8 mph93%29.85 "Hg9 mi
3:43 am36 °FOvercast.7 mph100%29.85 "Hg9 mi
4:00 am36 °FMostly cloudy.9 mph100%29.86 "Hg9 mi
4:16 am36 °FMostly cloudy.8 mph100%29.86 "Hg9 mi
5:00 am36 °FMostly cloudy.6 mph100%29.86 "Hg9 mi
5:42 am36 °FOvercast.No wind100%29.87 "Hg9 mi
5:54 am36 °FMostly cloudy.No wind100%29.87 "Hg9 mi
6:00 am36 °FMostly cloudy.No wind100%29.88 "Hg9 mi
7:00 am37 °FOvercast.6 mph93%29.88 "Hg9 mi
7:26 am36 °FOvercast.8 mph100%29.88 "Hg9 mi
7:44 am36 °FMostly cloudy.9 mph100%29.89 "Hg9 mi
8:09 am36 °FMore clouds than sun.5 mph100%29.89 "Hg9 mi
9:00 am37 °FOvercast.2 mph93%29.90 "Hg9 mi
10:00 am37 °FMostly cloudy.6 mph93%29.91 "Hg9 mi
11:00 am39 °FMostly cloudy.8 mph93%29.91 "Hg9 mi
12:39 pm41 °FMostly cloudy.9 mph81%29.90 "Hg9 mi
1:00 pm41 °FMore clouds than sun.9 mph81%29.90 "Hg9 mi
1:37 pm41 °FMostly cloudy.17 mph81%29.91 "Hg9 mi
2:06 pm41 °FMore clouds than sun.17 mph81%29.91 "Hg9 mi
3:00 pm39 °FPartly sunny.3 mph87%29.93 "Hg9 mi
4:00 pm39 °FOvercast.2 mph87%29.93 "Hg9 mi
5:00 pm39 °FOvercast.5 mph87%29.95 "Hg9 mi
6:00 pm39 °FOvercast.7 mph87%29.96 "Hg9 mi
7:00 pm37 °FOvercast.3 mph93%29.97 "Hg9 mi
8:00 pm37 °FOvercast.No wind93%29.98 "Hg9 mi
9:00 pm37 °FOvercast.3 mph93%30.00 "Hg9 mi
10:00 pm37 °FOvercast.3 mph93%30.01 "Hg9 mi
11:00 pm36 °FOvercast.No wind100%30.02 "Hg9 mi
Weather by CustomWeather, © 2020

See weather overview